Weather History for Buena Vista, CO

Change the Weather History Date:

Thursday, December 12, 2013

  Actual Average (KLXV) Record (KLXV)
Temperature  
Mean Temperature 16 °F -  
Max Temperature 33 °F 29 °F 45 °F (2014)
Min Temperature -1 °F 4 °F -17 °F (1985)
Degree Days  
Heating Degree Days 49 48  
Month to date heating degree days 570  
Since 1 July heating degree days 3975  
Cooling Degree Days 0 0  
Month to date cooling degree days 0  
Year to date cooling degree days 0  
Moisture  
Dew Point 2 °F    
Average Humidity 51    
Maximum Humidity 71    
Minimum Humidity 32    
Precipitation  
Precipitation 0.00 in 0.02 in 0.30 in (1977)
Month to date precipitation 0.30  
Year to date precipitation 12.00  
Sea Level Pressure  
Sea Level Pressure 30.29 in    
Wind  
Wind Speed 3 mph (WNW)    
Max Wind Speed 16 mph    
Max Gust Speed 23 mph    
Visibility 10 miles    
Events      
T = Trace of Precipitation, MM = Missing Value Source: NWS Daily Summary

Daily Weather History Graph

Daily Weather History Graph

Search for Another Location

Airport:

Trip Planner

Search our weather history database for the weather conditions in past years. The results will help you decide how hot, cold, wet, or windy it might be!

Date:

Astronomy

Dec. 12, 2013 Rise Set
Actual Time 7:13 AM MST 4:43 PM MST
Civil Twilight 6:43 AM MST 5:12 PM MST
Nautical Twilight 6:10 AM MST 5:46 PM MST
Astronomical Twilight 5:38 AM MST 6:18 PM MST
Moon 1:50 PM MST (12/12) 2:41 AM MST (12/12)
Length of Visible Light 10h 29m
Length of Day
9h 29m
Waxing Gibbous, 81% of the Moon is Illuminated
Dec 12
Waxing Gibbous
Dec 17
Full
Dec 25
Last Quarter
Jan 1
New
Jan 7
First Quarter

Hourly Weather History & Observations

Time (MST) Temp. Windchill Dew Point Humidity Pressure Visibility Wind Dir Wind Speed Gust Speed Precip Events Conditions
12:15 AM 3.0 °F - -4.9 °F 70% 30.43 in 10.0 mi Calm Calm - N/A   Clear
12:35 AM 2.8 °F -4.6 °F -6.7 °F 64% 30.43 in 10.0 mi West 3.5 mph - N/A   Clear
12:55 AM 4.8 °F -7.1 °F -4.2 °F 66% 30.42 in 10.0 mi West 6.9 mph - N/A   Clear
1:15 AM 4.6 °F -7.4 °F -3.6 °F 69% 30.42 in 10.0 mi West 6.9 mph - N/A   Clear
1:35 AM 6.6 °F - -2.7 °F 66% 30.41 in 10.0 mi Calm Calm - N/A   Clear
1:55 AM 9.9 °F - -2.2 °F 58% 30.42 in 10.0 mi Calm Calm - N/A   Clear
2:15 AM 9.1 °F - -2.6 °F 59% 30.43 in 10.0 mi Calm Calm - N/A   Clear
2:35 AM 7.2 °F - -2.7 °F 64% 30.43 in 7.0 mi Calm Calm - N/A   Clear
2:55 AM 7.7 °F 1.0 °F -2.9 °F 62% 30.43 in 7.0 mi SW 3.5 mph - N/A   Clear
3:15 AM 3.9 °F -5.3 °F -5.4 °F 65% 30.43 in 10.0 mi West 4.6 mph - N/A   Clear
3:35 AM 2.5 °F -10.0 °F -5.8 °F 68% 30.43 in 10.0 mi WSW 6.9 mph - N/A   Clear
3:55 AM 5.2 °F -1.9 °F -3.3 °F 68% 30.42 in 10.0 mi NNW 3.5 mph - N/A   Clear
4:15 AM 6.6 °F - -3.1 °F 64% 30.42 in 10.0 mi Calm Calm - N/A   Clear
4:35 AM 5.5 °F -5.0 °F -5.3 °F 61% 30.42 in 10.0 mi West 5.8 mph - N/A   Clear
4:55 AM 10.6 °F 2.5 °F -2.7 °F 55% 30.41 in 10.0 mi West 4.6 mph - N/A   Clear
5:15 AM 7.5 °F -3.9 °F -3.8 °F 60% 30.41 in 10.0 mi West 6.9 mph - N/A   Clear
5:35 AM 4.5 °F -6.3 °F -7.1 °F 59% 30.40 in 10.0 mi West 5.8 mph - N/A   Clear
5:55 AM 5.2 °F -3.8 °F -6.0 °F 60% 30.40 in 10.0 mi West 4.6 mph - N/A   Clear
6:15 AM 6.3 °F - -4.5 °F 61% 30.40 in 10.0 mi Calm Calm - N/A   Clear
6:35 AM 6.4 °F - -3.8 °F 63% 30.40 in 10.0 mi Calm Calm - N/A   Clear
6:55 AM 2.3 °F - -6.7 °F 66% 30.41 in 10.0 mi Calm Calm - N/A   Clear
7:15 AM -0.8 °F - -8.5 °F 70% 30.41 in 10.0 mi Calm Calm - N/A   Clear
7:35 AM -1.7 °F -14.9 °F -8.9 °F 71% 30.41 in 10.0 mi West 6.9 mph - N/A   Clear
7:55 AM 2.5 °F - -6.9 °F 65% 30.41 in 10.0 mi Calm Calm - N/A   Clear
8:15 AM 1.9 °F -7.6 °F -7.4 °F 65% 30.41 in 10.0 mi West 4.6 mph - N/A   Clear
8:35 AM 5.4 °F -1.7 °F -4.5 °F 64% 30.41 in 10.0 mi West 3.5 mph - N/A   Clear
8:55 AM 11.3 °F - -2.2 °F 55% 30.41 in 10.0 mi Calm Calm - N/A   Clear
9:15 AM 12.9 °F - -1.5 °F 53% 30.41 in 10.0 mi Calm Calm - N/A   Clear
9:35 AM 14.4 °F - 0.3 °F 54% 30.40 in 10.0 mi Calm Calm - N/A   Clear
9:55 AM 18.3 °F - 2.1 °F 49% 30.40 in 10.0 mi Calm Calm - N/A   Clear
10:15 AM 21.0 °F - 3.0 °F 46% 30.39 in 10.0 mi Calm Calm - N/A   Clear
10:35 AM 23.2 °F - 4.8 °F 45% 30.38 in 10.0 mi Calm Calm - N/A   Clear
10:55 AM 24.6 °F - 6.3 °F 46% 30.36 in 10.0 mi Calm Calm - N/A   Clear
11:15 AM 24.4 °F 20.1 °F 9.1 °F 52% 30.35 in 10.0 mi SSW 3.5 mph - N/A   Clear
11:35 AM 27.3 °F 22.0 °F 12.0 °F 53% 30.32 in 10.0 mi West 4.6 mph - N/A   Clear
11:55 AM 30.4 °F 25.6 °F 6.8 °F 37% 30.30 in 10.0 mi SW 4.6 mph - N/A   Clear
12:15 PM 32.5 °F - 5.9 °F 33% 30.29 in 10.0 mi Calm Calm - N/A   Clear
12:35 PM 33.3 °F - 6.4 °F 32% 30.28 in 10.0 mi Calm Calm - N/A   Clear
12:55 PM 32.2 °F - 11.1 °F 42% 30.26 in 10.0 mi Calm Calm - N/A   Clear
1:15 PM 32.4 °F 27.9 °F 11.8 °F 43% 30.25 in 10.0 mi WSW 4.6 mph - N/A   Clear
1:55 PM 31.3 °F 25.6 °F 12.7 °F 46% 30.23 in 10.0 mi WSW 5.8 mph - N/A   Clear
2:15 PM 32.0 °F 28.7 °F 13.8 °F 47% 30.21 in 10.0 mi NW 3.5 mph - N/A   Clear
2:35 PM 32.2 °F 25.0 °F 11.5 °F 42% 30.21 in 10.0 mi WSW 8.1 mph - N/A   Clear
2:55 PM 33.4 °F - 10.9 °F 39% 30.21 in 10.0 mi Calm Calm - N/A   Clear
3:15 PM 29.8 °F 26.3 °F 13.3 °F 50% 30.20 in 10.0 mi WNW 3.5 mph - N/A   Clear
3:35 PM 31.5 °F 28.1 °F 10.2 °F 41% 30.20 in 10.0 mi NNE 3.5 mph - N/A   Clear
3:55 PM 32.5 °F 28.1 °F 7.0 °F 34% 30.21 in 10.0 mi South 4.6 mph - N/A   Clear
4:15 PM 31.5 °F 28.1 °F 5.9 °F 34% 30.20 in 10.0 mi South 3.5 mph - N/A   Clear
4:35 PM 31.5 °F - 4.5 °F 32% 30.19 in 10.0 mi Calm Calm - N/A   Clear
4:55 PM 27.5 °F - 3.9 °F 37% 30.17 in 10.0 mi Calm Calm - N/A   Clear
5:15 PM 24.1 °F 13.7 °F 5.7 °F 46% 30.17 in 10.0 mi NW 10.4 mph - N/A   Clear
5:35 PM 27.1 °F 16.9 °F 7.5 °F 44% 30.17 in 10.0 mi NNW 11.5 mph - N/A   Clear
5:55 PM 24.1 °F 13.7 °F 8.4 °F 51% 30.16 in 10.0 mi NW 10.4 mph - N/A   Clear
6:15 PM 26.2 °F - 7.0 °F 44% 30.16 in 10.0 mi Calm Calm - N/A   Clear
6:35 PM 26.6 °F 22.6 °F 6.6 °F 43% 30.16 in 10.0 mi NE 3.5 mph - N/A   Clear
6:55 PM 24.8 °F - 6.1 °F 45% 30.15 in 10.0 mi Calm Calm - N/A   Clear
7:15 PM 24.4 °F 15.6 °F 5.4 °F 44% 30.14 in 10.0 mi NNE 8.1 mph - N/A   Clear
7:35 PM 28.4 °F 16.6 °F 7.0 °F 40% 30.13 in 10.0 mi NNW 16.1 mph 20.7 mph N/A   Clear
7:55 PM 29.1 °F 18.9 °F 7.0 °F 39% 30.13 in 10.0 mi NNW 12.7 mph - N/A   Clear
8:15 PM 28.8 °F 17.9 °F 7.2 °F 40% 30.13 in 10.0 mi NW 13.8 mph 20.7 mph N/A   Clear
8:35 PM 25.5 °F 21.3 °F 6.4 °F 44% 30.13 in 10.0 mi East 3.5 mph - N/A   Clear
8:55 PM 27.1 °F - 5.9 °F 41% 30.13 in 10.0 mi Calm Calm - N/A   Clear
9:15 PM 23.5 °F - 5.0 °F 45% 30.12 in 10.0 mi Calm Calm - N/A   Clear
9:35 PM 25.7 °F 18.0 °F 4.1 °F 40% 30.12 in 10.0 mi NNW 6.9 mph - N/A   Clear
9:55 PM 22.3 °F - 3.4 °F 44% 30.11 in 10.0 mi Calm Calm - N/A   Clear
10:15 PM 25.0 °F 20.7 °F 3.6 °F 40% 30.10 in 10.0 mi NNW 3.5 mph - N/A   Clear
10:35 PM 20.8 °F 16.0 °F 3.6 °F 47% 30.10 in 10.0 mi NE 3.5 mph - N/A   Clear
10:55 PM 21.4 °F - 2.8 °F 45% 30.09 in 10.0 mi Calm Calm - N/A   Clear
11:15 PM 21.0 °F - 2.8 °F 45% 30.09 in 10.0 mi Calm Calm - N/A   Clear
11:35 PM 23.2 °F 12.0 °F 3.7 °F 43% 30.08 in 10.0 mi NNW 11.5 mph 23.0 mph N/A   Clear
11:55 PM 20.7 °F 8.2 °F 2.8 °F 46% 30.07 in 10.0 mi NNW 12.7 mph - N/A   Clear